Weather History for Marathon, FL

Change the Weather History Date:

Thursday, April 12, 2012

  Actual Average Record
Temperature  
Mean Temperature 79 °F 77 °F  
Max Temperature 84 °F 83 °F 89 °F (2013)
Min Temperature 74 °F 71 °F 66 °F (1998)
Degree Days  
Heating Degree Days 0 0  
Month to date heating degree days 0 0  
Since 1 July heating degree days 33 81  
Cooling Degree Days 14 12  
Month to date cooling degree days 164 138  
Year to date cooling degree days 1082 803  
Growing Degree Days 28 (Base 50)    
Moisture  
Dew Point 61 °F    
Average Humidity 56    
Maximum Humidity 69    
Minimum Humidity 43    
Precipitation  
Precipitation 0.00 in 0.06 in 1.05 in (2004)
Month to date precipitation 1.39 0.85  
Year to date precipitation 5.46 7.06  
Snow  
Snow 0.00 in - - ()
Month to date snowfall 0.0  
Since 1 July snowfall 0.0  
Snow Depth 0.00 in    
Sea Level Pressure  
Sea Level Pressure 30.04 in    
Wind  
Wind Speed 6 mph (NW)    
Max Wind Speed 10 mph    
Max Gust Speed 15 mph    
Visibility 10 miles    
Events      
T = Trace of Precipitation, MM = Missing Value Source: NWS Daily Summary

Daily Weather History Graph

Daily Weather History Graph

Search for Another Location

Airport:

Trip Planner

Search our weather history database for the weather conditions in past years. The results will help you decide how hot, cold, wet, or windy it might be!

Date:

Astronomy

Apr. 12, 2012 Rise Set
Actual Time 7:04 AM EDT 7:45 PM EDT
Civil Twilight 6:41 AM EDT 8:08 PM EDT
Nautical Twilight 6:14 AM EDT 8:35 PM EDT
Astronomical Twilight 5:46 AM EDT 9:03 PM EDT
Moon 1:11 AM EDT (4/12) 12:16 PM EDT (4/12)
Length of Visible Light 13h 27m
Length of Day
12h 40m
Waning Gibbous, 59% of the Moon is Illuminated
Apr 12
Waning Gibbous
Apr 13
Last Quarter
Apr 21
New
Apr 29
First Quarter
May 5
Full

Hourly Weather History & Observations

Time (EDT) Temp. Heat Index Dew Point Humidity Pressure Visibility Wind Dir Wind Speed Gust Speed Precip Events Conditions
12:53 AM 73.9 °F - 62.1 °F 66% 30.04 in 10.0 mi WNW 3.5 mph - N/A   Partly Cloudy
1:53 AM 75.0 °F - 62.1 °F 64% 30.02 in 10.0 mi NNW 5.8 mph - N/A   Scattered Clouds
2:53 AM 75.0 °F - 63.0 °F 66% 30.00 in 10.0 mi NNW 3.5 mph - N/A   Partly Cloudy
3:53 AM 75.0 °F - 63.0 °F 66% 30.00 in 10.0 mi NNW 3.5 mph - N/A   Scattered Clouds
4:53 AM 75.0 °F - 62.1 °F 64% 30.00 in 10.0 mi North 5.8 mph - N/A   Scattered Clouds
5:53 AM 73.9 °F - 62.1 °F 66% 30.00 in 10.0 mi NW 4.6 mph - N/A   Clear
7:53 AM 75.9 °F - 64.0 °F 67% 30.04 in 10.0 mi NNE 6.9 mph - N/A   Mostly Cloudy
8:53 AM 78.1 °F - 62.1 °F 58% 30.06 in 10.0 mi North 5.8 mph - N/A   Clear
9:53 AM 80.1 °F 81.1 °F 61.0 °F 52% 30.06 in 10.0 mi North 8.1 mph - N/A   Clear
10:53 AM 81.0 °F 81.0 °F 57.0 °F 44% 30.07 in 10.0 mi North 4.6 mph - N/A   Clear
11:53 AM 82.0 °F 82.0 °F 57.9 °F 44% 30.08 in 10.0 mi NNW 6.9 mph - N/A   Clear
12:53 PM 82.0 °F 82.4 °F 60.1 °F 47% 30.07 in 10.0 mi Variable 4.6 mph - N/A   Clear
1:53 PM 82.9 °F 83.7 °F 62.1 °F 49% 30.06 in 10.0 mi NNW 8.1 mph - N/A   Clear
2:53 PM 82.9 °F 83.3 °F 61.0 °F 47% 30.05 in 10.0 mi NW 5.8 mph - N/A   Clear
3:53 PM 82.9 °F 82.4 °F 57.0 °F 41% 30.03 in 10.0 mi NW 9.2 mph - N/A   Clear
4:53 PM 82.9 °F 83.2 °F 60.1 °F 46% 30.02 in 10.0 mi West 6.9 mph - N/A   Clear
5:53 PM 82.0 °F 82.1 °F 59.0 °F 45% 30.01 in 10.0 mi Variable 6.9 mph - N/A   Clear
6:53 PM 80.1 °F 80.6 °F 57.9 °F 47% 30.02 in 10.0 mi West 8.1 mph - N/A   Clear
7:53 PM 78.1 °F - 57.9 °F 50% 30.02 in 10.0 mi WNW 6.9 mph - N/A   Clear
8:53 PM 77.0 °F - 60.1 °F 56% 30.03 in 10.0 mi WNW 4.6 mph - N/A   Clear
9:53 PM 77.0 °F - 61.0 °F 58% 30.05 in 10.0 mi WNW 4.6 mph - N/A   Clear
10:53 PM 77.0 °F - 63.0 °F 62% 30.06 in 10.0 mi WNW 5.8 mph - N/A   Clear
11:53 PM 75.9 °F - 64.0 °F 67% 30.06 in 10.0 mi NW 8.1 mph - N/A   Clear